**Search for your results by entering your last name OR bib number OR search by age group to compare your stats with others
Individual Search
 
Bib:
Last Name:
All Participants Search
 
Top Ten Women
PlaceNameTimePace
1.Allison MacSas1:13:02.805:35/M
2.Allison Mendez1:13:20.585:36/M
3.Nora Colligan1:15:46.925:47/M
4.Andrea Duke1:16:12.415:49/M
5.Chris Kimbrough1:17:35.925:55/M
6.Amy Shackelford1:17:45.805:56/M
7.Anita Quirino1:18:50.616:01/M
8.Jen Frankmann1:20:20.226:08/M
9.Melisa Christian1:21:25.006:13/M
10.Sarah Jackson1:23:12.366:21/M
Top Ten Men
PlaceNameTimePace
1.Will Nation1:07:01.025:07/M
2.Bryan Morton1:07:16.135:08/M
3.Collin Smith1:07:28.855:09/M
4.Jeff Sadler1:07:45.205:10/M
5.Jacob Bradosky1:08:22.015:13/M
6.Jeremy Daum1:08:26.155:13/M
7.Jacob Buhler1:09:31.485:18/M
8.David Rodriguez1:10:14.945:22/M
9.Robert Wade1:10:25.455:23/M
10.Giovanni Pipia1:10:37.135:23/M
Contact us for results help

Gallery of Events

Contact Us

Address:
172 Trademark Drive
Buda, Texas 78610

Phone:
(512) 386 - 7966

Email:
info@cadencesports.com